Location: Glencliff
(36.1226°N, 86.7183°W)
Time: 09:41:45
(UTC+00:00)

Terra - Pass Details

Date: 25 August 2019
Orbit: 702 x 703 km, 98.2° (Epoch: 15 September)

Event Time Altitude Azimuth Distance (km) Brightness Sun altitude
Exits shadow 04:25:07 17° 327° (NNW) 1,737 4.4 -39.0°
Drops below altitude 10° 04:26:18 10° 333° (NNW) 2,174 5.0 -39.1°
Sets 04:28:40 0° 340° (NNW) 3,096 6.0 -39.3°
